Location: Asheville, NC
(35.6000°N, 82.5500°W)
Time: 00:27:48
(UTC-04:00)

Vanguard 3 - Pass Details

Date: 14 March 2018
Orbit: 508 x 3264 km, 33.3° (Epoch: 24 June)

Event Time Altitude Azimuth Distance (km) Brightness Sun altitude
Rises 13:01:06 0° 274° (W) 6,991 11.8 51.0°
Reaches altitude 10° 13:06:13 10° 273° (W) 5,716 11.5 51.3°
Maximum altitude 13:22:26 76° 192° (SSW) 2,015 10.6 51.8°
Drops below altitude 10° 13:31:27 10° 108° (ESE) 3,375 10.6 52.0°
Sets 13:33:43 0° 106° (ESE) 4,071 10.9 52.0°
